Station 46069 (LLNR 181.6) - SOUTH SANTA ROSA - 14 NM SW of Santa Rosa Island, CA Image indicating link to RSS feed of recent meteorological observations for station 46069


Conditions at 46069 as of
(3:50 am PDT)
1050 GMT on 04/19/2024:
     

Click on the graph icon in the table below to see a time series plot of the last five days of that observation.

5-day plot - Wind Direction Wind Direction (WDIR): NW ( 320 deg true )
5-day plot - Wind Speed Wind Speed (WSPD): 9.7 kts
5-day plot - Wind Gust Wind Gust (GST): 13.6 kts
5-day plot - Wave Height Wave Height (WVHT): 4.3 ft
5-day plot - Dominant Wave Period Dominant Wave Period (DPD): 15 sec
5-day plot - Average Wave Period Average Period (APD): 7.7 sec
5-day plot - Mean Wave Direction Mean Wave Direction (MWD):SSW ( 192 deg true )
5-day plot - Atmospheric Pressure Atmospheric Pressure (PRES):29.94 in
5-day plot - Air Temperature Air Temperature (ATMP): 54.0 °F
5-day plot - Water Temperature Water Temperature (WTMP): 57.0 °F
5-day plot - Dew Point Dew Point (DEWP): 50.9 °F
5-day plot - Wind Speed at 10 Meters Wind Speed at 10 meters (WSPD10M): 9.7 kts
5-day plot - Wind Speed at 20 Meters Wind Speed at 20 meters (WSPD20M): 9.7 kts
5-day plot -  Wind Speed, Wind Gust and Atmospheric Pressure Combined plot of Wind Speed, Gust, and Air Pressure
Supplemental Measurements
Highest 1-minute Wind Speed
Time (PDT)5-day plot - 1-Minute Wind Speed WSPD 5-day plot - 1-Minute Wind Direction WDIR
3:46 am 11.7 kts-
Previous observations
TIME
(PDT)
5-day plot - Wind Direction
WDIR
 
5-day plot - Wind Speed
WSPD
kts
5-day plot - Wind Gust
GST
kts
5-day plot - Wave Height
WVHT
ft
5-day plot - Dominant Wave Period
DPD
sec
5-day plot - Average Wave Period
APD
sec
5-day plot - Mean Wave Direction
MWD
 
5-day plot - Atmospheric Pressure
PRES
in
5-day plot - Pressure Tendency
PTDY
in
5-day plot - Air Temperature
ATMP
°F
5-day plot - Water Temperature
WTMP
°F
5-day plot - Dew Point
DEWP
°F
5-day plot - Salinity
SAL
psu
5-day plot - Visibility
VIS
nmi
5-day plot - Tide (above MLLW)
TIDE
ft
2024-04-19 03:40 amNNW 5.8 11.7----29.94- 53.6 57.0 50.4---
2024-04-19 03:30 amNNW 7.8 11.7----29.94- 53.8 56.8 50.7---
2024-04-19 03:20 am N 9.7 13.6 4.3 157.7SSW29.94- 53.6 56.8 50.4---
2024-04-19 03:10 am N 9.7 11.7 4.3-7.7SSW29.94- 53.8 56.8 50.7---
2024-04-19 03:00 am NW 7.8 11.7----29.94-0.03 53.6 56.8 50.4---
2024-04-19 02:50 am NW 9.7 13.6 4.3 157.6 S29.95- 53.8 56.8 50.5---
2024-04-19 02:40 am NW 9.7 11.7 4.3-7.6 S29.95- 53.8 56.8 50.5---
2024-04-19 02:30 amNNW 9.7 13.6----29.95- 53.8 56.8 50.5---
2024-04-19 02:20 am NW 7.8 11.7 4.9 158.2SSW29.95- 54.0 57.0 50.9---
2024-04-19 02:10 am NW 7.8 11.7----29.95- 53.6 57.0 50.4---
2024-04-19 02:00 am NW 9.7 11.7----29.96+0.00 54.0 57.0 50.9---
2024-04-19 01:50 amNNW 9.7 11.7 4.6 157.8 S29.95- 54.0 57.0 50.9---
2024-04-19 01:40 amNNW 7.8 11.7----29.96- 54.0 56.8 50.9---
2024-04-19 01:30 amWNW 7.8 11.7----29.97- 53.8 56.8 50.5---
2024-04-19 01:20 am NW 9.7 13.6 4.3 157.6SSW29.97- 54.0 57.0 50.9---
2024-04-19 01:10 amNNW 9.7 11.7 4.3-7.6SSW29.97- 54.0 57.0 50.7---
2024-04-19 01:00 am NW 7.8 11.7----29.97+0.00 54.1 57.0 50.9---
2024-04-19 12:50 am NW 7.8 11.7 4.6 157.6 S29.97- 54.1 57.0 50.9---
2024-04-19 12:40 am NW 7.8 11.7 4.6-7.6 S29.97- 54.0 57.0 50.9---
2024-04-19 12:30 am NW 9.7 13.6----29.97- 54.0 57.0 50.9---
2024-04-19 12:20 amWNW 9.7 13.6 4.6 158.2SSW29.97- 53.8 56.8 50.9---
2024-04-19 12:10 am NW 7.8 13.6 4.6-8.2SSW29.97- 53.6 56.7 50.9---
2024-04-19 12:00 am NW 9.7 13.6----29.97+0.02 53.8 56.7 50.9---
2024-04-18 11:50 pm NW 7.8 13.6 4.6 158.0SSW29.96- 53.8 56.8 51.1---
2024-04-18 11:40 pm NW 9.7 13.6----29.96- 53.8 56.8 50.9---
2024-04-18 11:30 pm NW 9.7 11.7----29.96- 53.8 56.8 51.1---
2024-04-18 11:20 pmWNW 9.7 13.6 4.6 158.2SSW29.96- 54.0 56.8 51.1---
2024-04-18 11:10 pm NW 9.7 11.7 4.6-8.2SSW29.96- 54.0 56.8 50.9---
2024-04-18 11:00 pm NW 7.8 11.7----29.96+0.02 54.0 57.0 50.9---
2024-04-18 10:50 pm NW 9.7 13.6 4.6 157.6SSW29.96- 54.1 57.0 51.1---
2024-04-18 10:40 pm NW 9.7 13.6----29.96- 54.3 57.0 51.3---
2024-04-18 10:30 pm NW 9.7 13.6----29.96- 54.3 57.2 51.1---
2024-04-18 10:20 pm NW 9.7 13.6 4.3 157.7SSW29.96- 54.5 57.2 51.4---
2024-04-18 10:10 pmWNW 7.8 11.7----29.96- 54.5 57.4 51.4---
2024-04-18 10:00 pmWNW 9.7 13.6----29.97+0.03 54.7 57.4 51.8---
2024-04-18 09:50 pmWNW 9.7 11.7 4.6 158.4 S29.96- 54.9 57.4 52.2---
2024-04-18 09:40 pm NW 7.8 11.7 4.6-8.4 S29.96- 55.2 57.6 52.5---
2024-04-18 09:30 pmWNW 7.8 9.7----29.96- 55.2 57.6 52.3---
2024-04-18 09:20 pmWNW 9.7 11.7 4.3 157.5SSW29.96- 55.2 57.6 52.7---
2024-04-18 09:10 pmWNW 7.8 9.7----29.95- 55.2 57.6 52.5---
2024-04-18 09:00 pmWNW 7.8 11.7----29.95+0.02 55.2 57.6 52.5---
2024-04-18 08:50 pmWNW 7.8 11.7 4.6 158.0SSW29.95- 55.2 57.6 52.7---
2024-04-18 08:40 pmWNW 7.8 11.7 4.6-8.0SSW29.95- 55.4 57.7 53.1---
2024-04-18 08:30 pmWNW 7.8 11.7----29.94- 55.4 57.7 52.9---
2024-04-18 08:20 pmWNW 7.8 11.7 4.9 158.6 S29.94- 55.6 57.9 53.1---
2024-04-18 08:10 pm NW 7.8 11.7 4.9-8.6 S29.93- 55.8 57.9 53.2---
2024-04-18 08:00 pm NW 7.8 11.7----29.94-0.01 55.9 57.9 53.4---
2024-04-18 07:50 pm NW 9.7 11.7 4.9 158.6SSW29.93- 55.9 57.9 53.2---
2024-04-18 07:40 pm NW 7.8 9.7----29.93- 56.1 57.9 53.4---
2024-04-18 07:30 pm NW 7.8 9.7----29.93- 56.3 58.1 53.6---
2024-04-18 07:20 pmWNW 5.8 9.7 5.2 168.9SSW29.93- 56.1 58.1 53.4---
2024-04-18 07:10 pmWNW 7.8 9.7 5.2-8.9SSW29.94- 56.1 58.1 53.4---
2024-04-18 07:00 pm W 7.8 11.7----29.94+0.00 56.1 58.3 53.6---
2024-04-18 06:50 pm W 7.8 9.7 5.2 158.8SSW29.94- 56.1 58.1 53.6---
2024-04-18 06:40 pmWNW 7.8 9.7 5.2-8.8SSW29.94- 56.3 58.1 53.8---
2024-04-18 06:30 pm NW 7.8 9.7----29.93- 56.3 58.1 53.8---
2024-04-18 06:20 pmWNW 7.8 9.7 4.6 158.1SSW29.93- 56.3 58.1 53.8---
2024-04-18 06:10 pmWNW 7.8 9.7----29.93- 56.5 57.7 54.0---
2024-04-18 06:00 pm NW 7.8 11.7----29.93- 56.1 57.7 53.4---
2024-04-18 05:50 pm NW 7.8 11.7 5.2 168.0 S29.94- 56.5 57.6 53.8---
2024-04-18 05:40 pm NW 7.8 9.7----29.93- 56.7 57.6 54.0---
2024-04-18 05:30 pmWNW 5.8 9.7----29.94- 56.7 57.4 54.0---
2024-04-18 05:20 pmWNW 5.8 9.7 4.6 157.7SSW29.94- 56.7 57.2 53.8---
2024-04-18 05:10 pm W 5.8 9.7----29.95- 56.7 57.4 53.8---
2024-04-18 05:00 pmWNW 7.8 9.7----29.95-0.02 56.8 57.4 53.8---
2024-04-18 04:50 pmWNW 5.8 9.7 4.9 168.1SSW29.94- 56.8 57.4 53.8---
2024-04-18 04:40 pm NW 7.8 9.7----29.94- 57.0 57.4 53.8---
2024-04-18 04:30 pm NW 7.8 9.7----29.94- 57.2 57.6 54.0---
2024-04-18 04:20 pmWNW 5.8 9.7 5.2 168.2 S29.94- 57.4 57.6 54.1---
2024-04-18 04:10 pmWNW 5.8 9.7 5.2-8.2 S29.95- 57.2 57.6 53.6---
2024-04-18 04:00 pmWNW 5.8 9.7----29.95-0.02 57.4 57.7 53.8---
2024-04-18 03:50 pm W 5.8 9.7 5.2 158.6SSW29.95- 57.2 58.1 53.6---
2024-04-18 03:40 pmWNW 5.8 9.7 5.2-8.6SSW29.95- 57.2 57.9 53.8---
2024-04-18 03:30 pmWNW 7.8 9.7----29.95- 57.2 58.1 54.1---
2024-04-18 03:20 pm W 5.8 7.8----29.96- 57.4 58.3 54.1---
2024-04-18 03:10 pm-------29.96-- 58.3----
2024-04-18 03:00 pm- 7.8 9.7------ 57.4 58.5 54.5---
2024-04-18 02:50 pmWNW 5.8 7.8 4.6 157.9 S29.96- 57.2 58.3 54.0---
2024-04-18 02:40 pmWNW 3.9 5.8----29.96- 57.0 57.6 54.3---
2024-04-18 02:30 pmWNW 3.9 5.8----29.97- 57.2 57.4 54.9---
2024-04-18 02:20 pm NW 3.9 5.8 5.2 168.8 S29.96- 57.2 57.2 54.7---
2024-04-18 02:10 pmNNW 3.9 5.8 5.2-8.8 S29.97- 57.2 57.6 54.7---
2024-04-18 02:00 pmNNW 3.9 5.8----29.96-0.02 57.2 57.6 54.7---
2024-04-18 01:50 pmNNW 1.9 3.9 4.9 158.5 S29.97- 56.8 57.4 54.3---
2024-04-18 01:40 pm NW 1.9 3.9 4.9-8.5 S29.97- 57.0 57.4 54.1---
2024-04-18 01:30 pmNNW 1.9 3.9----29.97- 57.0 57.9 54.3---
2024-04-18 01:20 pmNNW 1.9 3.9 5.6 168.8 S29.97- 56.8 57.6 54.3---
2024-04-18 01:10 pmNNW 1.9 3.9 5.6-8.8 S29.97- 56.7 57.0 54.3---
2024-04-18 01:00 pmNNW 1.9 3.9----29.97+0.00 56.5 56.8 54.3---
2024-04-18 12:50 pm NW 3.9 3.9 4.9 168.3SSW29.98- 56.3 56.8 54.3---
2024-04-18 12:40 pm W 3.9 5.8----29.98- 56.3 57.0 54.3---
2024-04-18 12:30 pm W 3.9 5.8----29.98- 56.3 56.8 54.1---
2024-04-18 12:20 pm W 3.9 3.9 5.2 158.7SSW29.98- 56.3 57.0 54.0---
2024-04-18 12:10 pmWSW 3.9 5.8 5.2-8.7SSW29.98- 56.1 57.2 54.0---
2024-04-18 12:00 pm SW 1.9 3.9----29.98+0.02 56.1 56.8 54.1---
2024-04-18 11:50 amSSW 1.9 3.9 4.9 158.1SSW29.98- 55.9 56.8 54.0---
2024-04-18 11:40 amSSW 1.9 5.8----29.98- 55.8 56.7 54.0---
2024-04-18 11:30 am S 1.9 5.8----29.98- 55.6 56.7 54.0---
2024-04-18 11:20 am SE 3.9 5.8 5.9 169.4 S29.98- 55.4 56.7 54.0---
2024-04-18 11:10 am SE 3.9 5.8 5.9-9.4 S29.98- 55.0 56.7 53.8---
2024-04-18 11:00 am SE 3.9 5.8----29.98+0.03 55.0 56.7 54.0---
2024-04-18 10:50 am SE 3.9 7.8 4.9 168.6 S29.98- 55.0 56.7 54.1---
2024-04-18 10:40 amESE 3.9 5.8----29.98- 54.9 56.7 54.1---
2024-04-18 10:30 amESE 3.9 5.8----29.98- 54.9 56.7 54.1---
2024-04-18 10:20 amESE 5.8 7.8 5.2 158.7 S29.97- 54.7 56.5 54.0---
2024-04-18 10:10 amESE 5.8 9.7 5.2-8.7 S29.97- 54.9 56.5 54.3---
2024-04-18 10:00 amESE 3.9 7.8----29.96+0.03 54.9 56.7 54.3---
2024-04-18 09:50 am E 3.9 5.8 4.9 98.1 NW29.97- 54.9 56.5 54.3---
2024-04-18 09:40 am E 3.9 7.8----29.97- 54.7 56.5 54.1---
2024-04-18 09:30 amESE 3.9 5.8----29.97- 54.9 56.5 54.3---
2024-04-18 09:20 am E 3.9 5.8 5.6 168.7 S29.97- 54.7 56.5 54.1---
2024-04-18 09:10 am E 3.9 5.8 5.6-8.7 S29.96- 54.7 56.5 54.1---
2024-04-18 09:00 am NE 3.9 5.8----29.96+0.03 54.7 56.5 54.3---
2024-04-18 08:50 amENE 3.9 5.8 5.6 169.1 S29.96- 54.9 56.5 54.5---
2024-04-18 08:40 amNNE 3.9 5.8----29.96- 55.0 56.5 54.7---
2024-04-18 08:30 amNNW 1.9 5.8----29.96- 55.0 56.5 54.7---
2024-04-18 08:20 amNNW 3.9 7.8 5.2 168.7 S29.96- 55.0 56.3 54.7---
2024-04-18 08:10 am N 3.9 7.8----29.96- 55.0 56.3 54.7---
2024-04-18 08:00 am N 3.9 7.8----29.95+0.02 55.0 56.3 54.7---
2024-04-18 07:50 am N 3.9 5.8 5.6 169.0SSW29.95- 55.2 56.3 54.9---
2024-04-18 07:40 am N 3.9 5.8----29.95- 55.0 56.3 54.7---
2024-04-18 07:30 am N 3.9 5.8----29.95- 55.0 56.3 54.7---
2024-04-18 07:20 am N 1.9 5.8 5.2 168.6 S29.94- 55.2 56.3 54.9---
2024-04-18 07:10 am N 1.9 5.8 5.2-8.6 S29.95- 55.2 56.3 54.9---
2024-04-18 07:00 amNNE 3.9 5.8----29.94+0.00 55.0 56.3 54.7---
2024-04-18 06:50 amNNE 3.9 5.8 5.6 169.1SSW29.93- 55.0 56.3 54.7---
2024-04-18 06:40 am N 5.8 9.7 5.6-9.1SSW29.93- 55.0 56.3 54.7---
2024-04-18 06:30 amNNE 3.9 5.8----29.93- 54.9 56.3 54.5---
2024-04-18 06:20 am N 3.9 7.8 5.6 168.8SSW29.94- 54.9 56.3 54.5---
2024-04-18 06:10 am N 3.9 5.8 5.6-8.8SSW29.93- 55.0 56.3 54.7---
2024-04-18 06:00 am N 3.9 5.8----29.93-0.01 55.0 56.3 54.9---
2024-04-18 05:50 amNNW 3.9 7.8 5.2 168.5 S29.93- 54.9 56.3 54.7---
2024-04-18 05:40 amNNW 3.9 7.8----29.93- 54.7 56.3 54.5---
2024-04-18 05:30 am N 5.8 7.8----29.93- 55.0 56.3 54.9---
2024-04-18 05:20 am N 5.8 7.8 5.2 168.3SSW29.93- 54.9 56.3 54.9---
2024-04-18 05:10 amNNW 7.8 9.7 5.2-8.3SSW29.93- 55.0 56.3 55.0---
2024-04-18 05:00 amNNW 5.8 7.8----29.93-0.02 55.0 56.3 55.0---
2024-04-18 04:50 am NW 5.8 7.8 5.9 168.5 S29.94- 55.0 56.3 55.0---
2024-04-18 04:40 am NW 5.8 9.7----29.94- 55.0 56.3 55.0---
2024-04-18 04:30 am NW 5.8 9.7----29.94- 55.0 56.3 55.0---
2024-04-18 04:20 amWNW 5.8 7.8 5.6 108.4 NW29.94- 55.0 56.3 55.0---
2024-04-18 04:10 amWNW 5.8 9.7 5.6-8.4 NW29.94- 55.2 56.5 55.2---
2024-04-18 04:00 am NW 5.8 9.7----29.94-0.02 55.2 56.5 55.2---
2024-04-18 03:50 amWNW 5.8 7.8 5.9 168.9 S29.94- 55.4 56.5 55.4---

Detailed Wave Summary
for 46069 as of (3:40 am PDT)
1040 GMT on 04/19/2024:

These wave data are displayed in rounded times.

     

Click on the graph icon in the table below to see a time series plot of the last five days of that observation.

5-day plot - Significant Wave Height Significant Wave Height (WVHT): 4.3 ft
5-day plot - Swell Height Swell Height (SwH): 3.9 ft
5-day plot - Swell Period Swell Period (SwP): 14.8 sec
5-day plot - Swell Direction Swell Direction (SwD):SSW
5-day plot - Wind Wave Height Wind Wave Height (WWH): 1.0 ft
5-day plot - Wind Wave Period Wind Wave Period (WWP): 3.6 sec
5-day plot - Wind Wave Direction Wind Wave Direction (WWD):WNW
5-day plot - Wave Steepness Wave Steepness (STEEPNESS): SWELL
5-day plot - Average Wave Period Average Wave Period (APD): 7.7 sec
Previous observations
TIME
(PDT)
5-day plot - Wave Height
WVHT
ft
5-day plot - Swell Height
SwH
ft
5-day plot - Swell Period
SwP
sec
5-day plot - Swell Direction
SwD
 
5-day plot - Wind Wave Height
WWH
ft
5-day plot - Wind Wave Period
WWP
sec
5-day plot - Wind Wave Direction
WWD
 
5-day plot - Wave Steepness
STEEPNESS
 
5-day plot - Average Wave Period
APD
sec
2024-04-19 03:10 am 4.3 3.9 14.8SSW 1.0 3.8 WNW SWELL 7.7
2024-04-19 02:40 am 4.3 3.9 14.8 S 1.3 3.8 WNW SWELL 7.6
2024-04-19 02:10 am 4.9 4.6 14.8SSW 1.0 3.7 WNW SWELL 8.2
2024-04-19 01:40 am 4.6 4.6 14.8 S 1.0 4.0 WNW SWELL 7.8
2024-04-19 01:10 am 4.3 4.3 14.8SSW 1.0 3.6 WNW SWELL 7.6
2024-04-19 12:40 am 4.6 4.6 14.8 S 1.0 3.7 WNW SWELL 7.6
2024-04-19 12:10 am 4.6 4.6 14.8SSW 1.0 3.8 WNW SWELL 8.2
2024-04-18 11:40 pm 4.6 4.6 14.8SSW 1.0 3.6 NW SWELL 8.0
2024-04-18 11:10 pm 4.6 4.6 14.8SSW 1.0 3.6 WNW SWELL 8.2
2024-04-18 10:40 pm 4.6 4.3 14.8SSW 1.0 4.0 WNW SWELL 7.6
2024-04-18 10:10 pm 4.3 4.3 14.8SSW 1.0 3.7 NW SWELL 7.7
2024-04-18 09:40 pm 4.6 4.6 14.8 S 0.7 4.0 WNW SWELL 8.4
2024-04-18 09:10 pm 4.3 3.9 14.8SSW 0.7 3.8 NW SWELL 7.5
2024-04-18 08:40 pm 4.6 4.3 14.8SSW 0.7 3.8 WNW SWELL 8.0
2024-04-18 08:10 pm 4.9 4.9 14.8 S 1.0 4.0 WNW SWELL 8.6
2024-04-18 07:40 pm 4.9 4.9 14.8SSW 0.7 3.3 WNW SWELL 8.6
2024-04-18 07:10 pm 5.2 4.9 16.0SSW 1.0 4.0 NW SWELL 8.9
2024-04-18 06:40 pm 5.2 4.9 14.8SSW 0.7 3.7 WNW SWELL 8.8
2024-04-18 06:10 pm 4.6 4.6 14.8SSW 1.0 3.8 WNW SWELL 8.1
2024-04-18 05:40 pm 5.2 5.2 16.0 S 1.0 3.8 WNW SWELL 8.0
2024-04-18 05:10 pm 4.6 4.3 14.8SSW 1.0 4.0 WNW SWELL 7.7
2024-04-18 04:40 pm 4.9 4.6 16.0SSW 1.0 3.8 WNW SWELL 8.1
2024-04-18 04:10 pm 5.2 4.9 16.0 S 1.0 3.6 W SWELL 8.2
2024-04-18 03:40 pm 5.2 5.2 14.8SSW 0.7 3.7 WNW SWELL 8.6
2024-04-18 02:40 pm 4.6 4.3 14.8 S 1.0 4.0 WNW SWELL 7.9
2024-04-18 02:10 pm 5.2 5.2 16.0 S 0.7 3.8 WNW SWELL 8.8
2024-04-18 01:40 pm 4.9 4.9 14.8 S 0.7 3.7 WNW SWELL 8.5
2024-04-18 01:10 pm 5.6 5.6 16.0 S 1.0 4.0 WNW SWELL 8.8
2024-04-18 12:40 pm 4.9 4.9 16.0SSW 0.7 3.8 WNW SWELL 8.3
2024-04-18 12:10 pm 5.2 5.2 14.8SSW 0.7 3.7 W SWELL 8.7
2024-04-18 11:40 am 4.9 4.6 14.8SSW 0.7 4.0 WNW SWELL 8.1
2024-04-18 11:10 am 5.9 5.9 16.0 S 0.7 4.0 WNW SWELL 9.4
2024-04-18 10:40 am 4.9 4.6 16.0 S 0.7 4.0 WNW SWELL 8.6
2024-04-18 10:10 am 5.2 5.2 14.8 S 0.7 3.7 W SWELL 8.7
2024-04-18 09:40 am 4.9 4.9 9.1 NW 0.7 3.7 WNW AVERAGE 8.1
2024-04-18 09:10 am 5.6 5.2 16.0 S 0.7 3.7 W SWELL 8.7
2024-04-18 08:40 am 5.6 5.6 16.0 S 0.7 3.8 WNW SWELL 9.1
2024-04-18 08:10 am 5.2 5.2 16.0 S 0.7 3.7 WNW SWELL 8.7
2024-04-18 07:40 am 5.6 5.6 16.0SSW 0.7 3.8 W SWELL 9.0
2024-04-18 07:10 am 5.2 4.9 16.0 S 0.7 4.0 WNW SWELL 8.6
2024-04-18 06:40 am 5.6 5.6 16.0SSW 1.0 3.6 W SWELL 9.1
2024-04-18 06:10 am 5.6 5.6 16.0SSW 1.0 3.8 WNW SWELL 8.8
2024-04-18 05:40 am 5.2 5.2 16.0 S 1.0 3.7 WNW SWELL 8.5
2024-04-18 05:10 am 5.2 5.2 16.0SSW 1.0 3.0 W SWELL 8.3
2024-04-18 04:40 am 5.9 5.9 16.0 S 1.0 3.6 W SWELL 8.5
2024-04-18 04:10 am 5.6 5.6 10.0 NW 1.0 3.6 W SWELL 8.4

Plot of wave energy versus frequency (and period)